Tracking 29892 objects as of 21-Nov-2024
HD Live streaming from Space Station
objects crossing your sky now

STARLINK-3302

Track STARLINK-3302 now!
10-day predictions
STARLINK-3302 is classified as:


NORAD ID: 50842
Int'l Code: 2022-001AR
Perigee: 545.8 km
Apogee: 547.9 km
Inclination: 53.2 °
Period: 95.4 minutes
Semi major axis: 6917 km
RCS: Unknown
Launch date: January 6, 2022
Source: United States (US)
Launch site: AIR FORCE EASTERN TEST RANGE (AFETR)
Your satellite tracking list
Your tracking list is empty




NASA's NSSDC Master Catalog

Two Line Element Set (TLE):
1 50842U 22001AR  24325.92705353 -.00000113  00000-0  10974-4 0  9995
2 50842  53.2159 145.9224 0001541  93.3772 266.7397 15.08841124160028
Source of the keplerian elements: AFSPC